星链-5205 (STARLINK-5205 )

导读 | 星芒AI

STARLINK-5205 是 SpaceX Starlink 项目中的一颗低轨通信卫星,属于第二代 Starlink 卫星(Gen2)。它运行在约 550 公里的轨道高度,旨在为全球用户提供高速、低延迟的互联网服务。该卫星配备了先进相控阵天线和激光通信系统,以提升数据传输效率和网络稳定性。作为 Starlink 卫星群的一部分,STARLINK-5205 有助于扩大覆盖范围,特别是在偏远和网络基础设施薄弱的地区。

基本信息
目录编号:
54202
目录名称:
STARLINK-5205
国际标识:
2022-141AX
轨道中心:
EARTH
卫星名称:
星链-5205
卫星全名:
星链-5205 (STARLINK-5205 )
卫星状态:
在轨 (已飞行1150 天)
发射日期:
2022-10-28 UTC
国别 :
美国 (US)
星等 :
--
轨道信息
数据来源 国际轨道数据
星历时间: 2025-12-20T14:38:27+0800
1天前
查看轨道信息
半长轴: 6917.882km
偏心率: 0.0001278
轨道倾角: 53.218°
近地点辐角 91.723°
升交点赤经 350.305°
平近点角 268.391°
近地点: 538.86km
远地点: 540.63km
周期: 95.438分钟
每日圈数: 15.088395
详细信息
固有亮度:
5
最大亮度:
2.5
卫星平台:
Starlink v1.5
覆盖范围:
全球
运营商:
太空探索技术公司
运营商所在国:
美国
制造商(研发单位):
太空探索技术公司
制造商所在国:
美国
使用方式:
暂无
卫星简介
星链(Starlink)计划是由太空探索技术公司(SpaceX)提出的一个巨型低轨卫星互联网星座项目,计划在2019年至2024年间在太空搭建由约1.2万颗卫星组成的“星链”网络,其中1584颗将部署在地球上空550千米处的近地轨道,并从2020年开始工作。该卫星仍在工作。
2D轨道图
3D轨道图
轨道高度分析图
轨道倾角分析图
轨道综合分析图
查看轨道综合分析图